Weather History for Garden City, KS

Change the Weather History Date:

Thursday, May 23, 2013

  Actual Average Record
Temperature  
Mean Temperature 59 °F 66 °F  
Max Temperature 67 °F 78 °F 101 °F (1964)
Min Temperature 50 °F 53 °F 42 °F (1966)
Degree Days  
Heating Degree Days 6 3  
Month to date heating degree days 145 113  
Since 1 July heating degree days 5199 5175  
Cooling Degree Days 0 3  
Month to date cooling degree days 62 44  
Year to date cooling degree days 66 56  
Growing Degree Days 8 (Base 50)    
Moisture  
Dew Point 48 °F    
Average Humidity 69    
Maximum Humidity 86    
Minimum Humidity 52    
Precipitation  
Precipitation 0.00 in 0.10 in 1.84 in (2007)
Month to date precipitation 0.68 2.02  
Year to date precipitation 1.56 6.08  
Sea Level Pressure  
Sea Level Pressure 30.05 in    
Wind  
Wind Speed 17 mph (East)    
Max Wind Speed 28 mph    
Max Gust Speed 36 mph    
Visibility 10 miles    
Events      
T = Trace of Precipitation, MM = Missing Value Source: NWS Daily Summary

Daily Weather History Graph

Daily Weather History Graph

Search for Another Location

Airport:

Trip Planner

Search our weather history database for the weather conditions in past years. The results will help you decide how hot, cold, wet, or windy it might be!

Date:

Astronomy

May. 23, 2013 Rise Set
Actual Time 6:26 AM CDT 8:53 PM CDT
Civil Twilight 5:56 AM CDT 9:23 PM CDT
Nautical Twilight 5:19 AM CDT 10:00 PM CDT
Astronomical Twilight 4:37 AM CDT 10:42 PM CDT
Moon 7:29 PM CDT (5/23) 5:11 AM CDT (5/23)
Length of Visible Light 15h 27m
Length of Day
14h 26m
Waxing Gibbous, 97% of the Moon is Illuminated
May 23
Waxing Gibbous
May 24
Full
May 31
Last Quarter
Jun 8
New
Jun 16
First Quarter

Hourly Weather History & Observations

Time (CDT) Temp. Dew Point Humidity Pressure Visibility Wind Dir Wind Speed Gust Speed Precip Events Conditions
12:54 AM 60.1 °F 45.0 °F 57% 29.93 in 10.0 mi East 9.2 mph - N/A   Clear
1:54 AM 59.0 °F 46.0 °F 62% 29.94 in 10.0 mi East 11.5 mph - N/A   Clear
2:54 AM 55.9 °F 46.0 °F 69% 29.95 in 10.0 mi NE 16.1 mph - N/A   Clear
3:54 AM 54.0 °F 46.9 °F 77% 29.96 in 10.0 mi ENE 19.6 mph 28.8 mph N/A   Clear
4:54 AM 52.0 °F 46.0 °F 80% 29.98 in 10.0 mi ENE 17.3 mph - N/A   Clear
5:54 AM 51.1 °F 46.0 °F 83% 29.99 in 10.0 mi ENE 21.9 mph - N/A   Clear
6:22 AM 50.0 °F 46.4 °F 87% 30.08 in 10.0 mi NE 21.9 mph 29.9 mph N/A   Partly Cloudy
6:36 AM 50.0 °F 46.4 °F 87% 30.08 in 10.0 mi ENE 25.3 mph 32.2 mph N/A   Mostly Cloudy
6:54 AM 50.0 °F 46.0 °F 86% 30.03 in 10.0 mi ENE 24.2 mph 31.1 mph N/A   Clear
7:04 AM 50.0 °F 44.6 °F 82% 30.09 in 10.0 mi NE 19.6 mph 33.4 mph N/A   Scattered Clouds
7:17 AM 50.0 °F 46.4 °F 87% 30.10 in 10.0 mi NE 18.4 mph 29.9 mph N/A   Mostly Cloudy
7:49 AM 50.0 °F 44.6 °F 82% 30.11 in 10.0 mi ENE 26.5 mph 33.4 mph N/A   Scattered Clouds
7:54 AM 50.0 °F 44.1 °F 80% 30.04 in 10.0 mi ENE 25.3 mph 33.4 mph N/A   Scattered Clouds
8:54 AM 53.1 °F 44.1 °F 71% 30.05 in 10.0 mi ENE 25.3 mph 32.2 mph N/A   Clear
9:54 AM 57.0 °F 45.0 °F 64% 30.06 in 10.0 mi ENE 19.6 mph 28.8 mph N/A   Clear
10:54 AM 60.1 °F 46.0 °F 60% 30.07 in 10.0 mi ENE 18.4 mph - N/A   Overcast
11:54 AM 64.0 °F 46.9 °F 54% 30.07 in 10.0 mi East 17.3 mph 24.2 mph N/A   Overcast
12:54 PM 64.9 °F 48.0 °F 54% 30.09 in 10.0 mi East 17.3 mph - N/A   Overcast
1:54 PM 64.0 °F 48.0 °F 56% 30.09 in 10.0 mi ESE 13.8 mph - N/A   Overcast
2:54 PM 66.0 °F 48.9 °F 54% 30.09 in 10.0 mi ESE 17.3 mph - N/A   Overcast
3:54 PM 64.9 °F 50.0 °F 58% 30.08 in 10.0 mi SE 21.9 mph 25.3 mph N/A   Overcast
4:54 PM 64.0 °F 52.0 °F 65% 30.07 in 10.0 mi SE 19.6 mph 26.5 mph N/A   Overcast
5:35 PM 62.6 °F 51.8 °F 68% 30.10 in 10.0 mi SE 20.7 mph - N/A   Overcast
5:54 PM 63.0 °F 52.0 °F 67% 30.06 in 10.0 mi ESE 17.3 mph - N/A   Overcast
6:54 PM 64.0 °F 54.0 °F 70% 30.05 in 10.0 mi ESE 17.3 mph - N/A   Overcast
7:54 PM 64.0 °F 54.0 °F 70% 30.05 in 10.0 mi ESE 16.1 mph - N/A   Overcast
8:54 PM 61.0 °F 54.0 °F 78% 30.04 in 10.0 mi ESE 13.8 mph - N/A   Partly Cloudy
9:54 PM 59.0 °F 53.1 °F 81% 30.06 in 10.0 mi ESE 9.2 mph - N/A   Clear
10:54 PM 59.0 °F 53.1 °F 81% 30.09 in 10.0 mi ESE 13.8 mph - N/A   Overcast
11:54 PM 57.9 °F 53.1 °F 84% 30.10 in 10.0 mi SE 12.7 mph - N/A   Overcast